Date String (YYYY-MM-DD hh:mm:ss) UTC,Instrument flags,Ambient pressure (hPa),Sample flow (lpm),Bypass flow (lpm),Sample temperature (°C),Ambient temperature (°C),ASC tube jacket temperature (°C),LED temperature (°C),Box temperature (°C),Sample RH (%),Span deviation,Mass concentration (μg/m³),Mass concentration (μg/m³),Mass concentration (μg/m³)
DateTimeUTC,F1_M11,P_M11,Q1_M11,Q2_M11,T1_M11,T2_M11,T3_M11,T4_M11,T5_M11,U1_M11,ZSPAN_M11,X2_M11,X0_M11,X1_M11
2022-12-02 09:00:00,,0809.6,4.99,0.00,21.8,20.3,00.0,30.9,23.5,12.6,0000.0,0000.90,0004.22,0000.43
2022-12-02 09:01:00,,0809.4,4.99,0.00,21.8,20.2,00.0,30.9,23.5,12.2,0000.0,0000.92,0004.46,0000.42
2022-12-02 09:02:00,,0809.7,5.01,0.00,21.8,20.2,00.0,30.9,23.5,12.1,0000.0,0000.93,0004.45,0000.43
2022-12-02 09:03:00,,0809.7,5.00,0.00,21.8,20.2,00.0,30.9,23.5,12.4,0000.0,0000.94,0005.29,0000.43
2022-12-02 09:04:00,,0809.8,4.99,0.00,21.8,20.2,00.0,30.8,23.5,12.5,0000.0,0000.93,0005.97,0000.43
2022-12-02 09:05:00,,0809.7,5.00,0.00,21.8,20.2,00.0,30.8,23.5,12.1,0000.0,0000.91,0006.20,0000.43
2022-12-02 09:06:00,,0809.8,5.01,0.00,21.7,20.1,00.0,30.8,23.4,12.3,0000.0,0000.87,0006.20,0000.43
2022-12-02 09:07:00,,0809.9,5.01,0.00,21.7,20.1,00.0,30.8,23.4,12.5,0000.0,0000.83,0006.08,0000.43
2022-12-02 09:08:00,,0809.9,5.01,0.00,21.7,20.1,00.0,30.8,23.4,12.7,0000.0,0000.84,0006.00,0000.43
2022-12-02 09:09:00,,0809.9,4.99,0.00,21.7,20.1,00.0,30.8,23.4,12.7,0000.0,0000.86,0005.46,0000.43
2022-12-02 09:10:00,,0810.0,5.00,0.00,21.7,20.0,00.0,30.8,23.4,12.5,0000.0,0000.88,0005.75,0000.43
2022-12-02 09:11:00,,0810.0,5.01,0.00,21.7,20.0,00.0,30.8,23.3,13.1,0000.0,0000.89,0005.89,0000.43
2022-12-02 09:12:00,,0810.0,5.00,0.00,21.7,20.0,00.0,30.8,23.3,13.1,0000.0,0000.88,0005.31,0000.43
2022-12-02 09:13:00,,0809.9,4.99,0.00,21.6,20.0,00.0,30.7,23.3,12.9,0000.0,0000.93,0004.56,0000.43
2022-12-02 09:14:00,,0810.0,5.00,0.00,21.6,20.0,00.0,30.7,23.3,12.7,0000.0,0000.95,0003.79,0000.43
2022-12-02 09:15:00,,0810.1,5.01,0.00,21.6,20.0,00.0,30.7,23.3,12.7,0000.0,0000.96,0003.12,0000.44
2022-12-02 09:16:00,,0810.2,5.00,0.00,21.6,20.0,00.0,30.7,23.3,12.7,0000.0,0000.98,0003.16,0000.44
2022-12-02 09:17:00,,0810.1,5.02,0.00,21.6,20.7,00.0,30.6,23.5,12.5,0000.0,0000.99,0003.03,0000.45
2022-12-02 09:18:00,,0810.3,5.00,0.00,21.8,21.7,00.0,30.6,23.8,12.5,0000.0,0001.02,0003.02,0000.44
2022-12-02 09:19:00,,0810.2,4.98,0.00,21.9,21.9,00.0,30.7,24.0,12.5,0000.0,0001.05,0003.08,0000.44
2022-12-02 09:20:00,,0810.3,5.01,0.00,21.9,21.6,00.0,30.7,24.0,12.5,0000.0,0001.02,0003.00,0000.44
2022-12-02 09:21:00,,0810.3,5.01,0.00,22.0,21.4,00.0,30.8,23.9,12.6,0000.0,0001.00,0002.58,0000.44
2022-12-02 09:22:00,,0810.2,5.00,0.00,22.0,21.2,00.0,30.8,23.9,12.5,0000.0,0000.95,0002.32,0000.44
2022-12-02 09:23:00,,0810.1,4.99,0.00,22.0,21.0,00.0,30.8,23.9,12.5,0000.0,0000.92,0002.30,0000.43
2022-12-02 09:24:00,,0810.3,5.00,0.00,22.0,20.9,00.0,30.8,23.8,12.4,0000.0,0000.88,0002.36,0000.43
2022-12-02 09:25:00,,0810.3,5.01,0.00,22.0,20.7,00.0,30.8,23.8,12.6,0000.0,0000.87,0002.32,0000.44
2022-12-02 09:26:00,,0810.3,5.01,0.00,22.0,20.6,00.0,30.8,23.7,12.7,0000.0,0000.87,0002.18,0000.44
2022-12-02 09:27:00,,0810.2,4.99,0.00,21.9,20.5,00.0,30.8,23.7,12.6,0000.0,0000.87,0001.96,0000.43
2022-12-02 09:28:00,,0810.3,5.00,0.00,21.9,20.5,00.0,30.9,23.7,12.7,0000.0,0000.88,0002.03,0000.43
2022-12-02 09:29:00,,0810.2,4.99,0.00,21.9,20.4,00.0,30.8,23.6,12.6,0000.0,0000.84,0001.97,0000.43
2022-12-02 09:30:00,,0810.2,5.00,0.00,21.9,20.4,00.0,30.9,23.6,12.4,0000.0,0000.83,0002.05,0000.43
2022-12-02 09:31:00,,0810.2,5.01,0.00,21.9,20.4,00.0,30.8,23.6,12.8,0000.0,0000.88,0002.23,0000.44
2022-12-02 09:32:00,,0810.3,5.00,0.00,21.9,20.3,00.0,30.8,23.6,12.5,0000.0,0000.90,0002.36,0000.44
2022-12-02 09:33:00,,0810.3,4.99,0.00,21.8,20.3,00.0,30.8,23.5,12.5,0000.0,0000.91,0002.44,0000.44
2022-12-02 09:34:00,,0810.3,4.99,0.00,21.8,20.3,00.0,30.8,23.5,12.4,0000.0,0000.91,0002.30,0000.45
2022-12-02 09:35:00,,0810.3,5.02,0.00,21.8,20.2,00.0,30.8,23.5,12.7,0000.0,0000.88,0002.06,0000.44
2022-12-02 09:36:00,,0810.2,5.00,0.00,21.8,20.2,00.0,30.8,23.5,12.7,0000.0,0000.85,0002.02,0000.42
2022-12-02 09:37:00,,0810.3,4.99,0.00,21.8,20.2,00.0,30.8,23.5,12.5,0000.0,0000.83,0002.91,0000.41
2022-12-02 09:38:00,,0810.2,5.01,0.00,21.7,20.2,00.0,30.8,23.5,12.4,0000.0,0000.79,0003.59,0000.41
2022-12-02 09:39:00,,0810.3,5.00,0.00,21.7,20.2,00.0,30.8,23.4,12.4,0000.0,0000.79,0003.58,0000.40
2022-12-02 09:40:00,,0810.3,4.98,0.00,21.7,20.1,00.0,30.8,23.4,12.5,0000.0,0000.83,0003.89,0000.41
2022-12-02 09:41:00,,0810.3,5.00,0.00,21.7,20.1,00.0,30.8,23.4,12.6,0000.0,0000.77,0003.81,0000.41
2022-12-02 09:42:00,,0810.3,5.00,0.00,21.7,20.1,00.0,30.7,23.4,12.7,0000.0,0000.75,0003.71,0000.41
2022-12-02 09:43:00,,0810.3,5.00,0.00,21.7,20.1,00.0,30.7,23.3,12.6,0000.0,0000.74,0003.60,0000.40
2022-12-02 09:44:00,,0810.4,5.00,0.00,21.7,20.1,00.0,30.7,23.3,12.6,0000.0,0000.74,0003.60,0000.40
2022-12-02 09:45:00,,0810.4,5.00,0.00,21.6,20.1,00.0,30.7,23.3,12.5,0000.0,0000.77,0004.97,0000.39
2022-12-02 09:46:00,,0810.4,4.99,0.00,21.6,20.0,00.0,30.7,23.3,12.5,0000.0,0000.81,0005.20,0000.39
2022-12-02 09:47:00,,0810.3,5.02,0.00,21.6,20.0,00.0,30.7,23.3,12.4,0000.0,0000.82,0005.19,0000.40
2022-12-02 09:48:00,,0810.3,5.00,0.00,21.6,20.0,00.0,30.7,23.3,12.3,0000.0,0000.84,0004.50,0000.40
2022-12-02 09:49:00,,0810.4,4.98,0.00,21.6,20.0,00.0,30.7,23.3,12.5,0000.0,0000.86,0004.38,0000.39
2022-12-02 09:50:00,,0810.3,5.02,0.00,21.6,20.0,00.0,30.7,23.3,12.7,0000.0,0000.83,0004.43,0000.38
2022-12-02 09:51:00,,0810.3,4.99,0.00,21.6,20.0,00.0,30.7,23.3,12.1,0000.0,0000.80,0004.17,0000.38
2022-12-02 09:52:00,,0810.4,4.99,0.00,21.6,20.0,00.0,30.6,23.3,12.3,0000.0,0000.85,0004.18,0000.37
2022-12-02 09:53:00,,0810.4,5.00,0.00,21.5,20.0,00.0,30.6,23.2,12.5,0000.0,0000.87,0004.30,0000.37
2022-12-02 09:54:00,,0810.2,5.00,0.00,21.5,20.0,00.0,30.6,23.2,12.2,0000.0,0000.89,0004.32,0000.38
2022-12-02 09:55:00,,0810.2,5.02,0.00,21.5,19.9,00.0,30.6,23.2,12.0,0000.0,0000.88,0004.32,0000.38
2022-12-02 09:56:00,,0810.4,4.99,0.00,21.5,19.9,00.0,30.6,23.2,12.3,0000.0,0000.86,0003.17,0000.38
2022-12-02 09:57:00,,0810.3,4.99,0.00,21.5,20.2,00.0,30.6,23.3,12.9,0000.0,0000.81,0002.68,0000.39
2022-12-02 09:58:00,,0810.3,5.02,0.00,21.6,21.2,00.0,30.5,23.6,12.6,0000.0,0000.78,0002.64,0000.38
2022-12-02 09:59:00,,0810.4,5.00,0.00,21.7,22.0,00.0,30.6,23.9,12.4,0000.0,0000.76,0002.33,0000.39
